Location: Unspecified
(0.0000°N, 0.0000°E)
Time: 21:24:42
(UTC+00:00)

deb Kosmos-1275 - Pass Details

Date: 12 March 2026
Orbit: 936 x 1103 km, 82.9° (Epoch: 11 April)

Event Time Altitude Azimuth Distance (km) Brightness Sun altitude
Rises 05:12:19 0° 150° (SSE) 3,602 ? -14.4°
Reaches altitude 10° 05:15:51 10° 129° (SE) 2,669 ? -13.5°
Maximum altitude 05:19:23 16° 92° (E) 2,282 ? -12.6°
Drops below altitude 10° 05:22:57 10° 57° (ENE) 2,711 ? -11.7°
Sets 05:26:34 0° 36° (NE) 3,687 ? -10.8°
